Grand Forks Air Force Base, ND

10:41 PM CDT on September 30, 2016 (GMT -0500)
Grand Forks International

Weather History for KGFK - October, 2012

Change the Weather History Date:

Monday, October 29, 2012

  Actual Average Record
Temperature  
Mean Temperature 41 °F 37 °F  
Max Temperature 50 °F 47 °F 77 °F (1950)
Min Temperature 32 °F 27 °F 8 °F (1988)
Degree Days  
Heating Degree Days 24 28  
Month to date heating degree days 658 622  
Since 1 July heating degree days 939 973  
Cooling Degree Days 0 0  
Month to date cooling degree days 0 0  
Year to date cooling degree days 572 378  
Moisture  
Dew Point 31 °F    
Average Humidity 73    
Maximum Humidity 89    
Minimum Humidity 56    
Precipitation  
Precipitation T in 0.05 in 0.95 in (1960)
Month to date precipitation 2.14 1.87  
Year to date precipitation 15.92 19.15  
Snow  
Snow T in 0.10 in 0.70 in (1972)
Month to date snowfall 2.7 1.3  
Since 1 July snowfall 2.7 1.3  
Since 1 September snowfall 2.7 1.3  
Snow Depth 0.00 in    
Sea Level Pressure  
Sea Level Pressure 30.17 in    
Wind  
Wind Speed 11 mph (ESE)    
Max Wind Speed 18 mph    
Max Gust Speed 22 mph    
Visibility 10 miles    
Events Rain , Snow    
T = Trace of Precipitation, MM = Missing Value Source: NWS Daily Summary

Daily Weather History Graph

Daily Weather History Graph

Search for Another Location

Airport or City:

Trip Planner

Search our weather history database for the weather conditions in past years. The results will help you decide how hot, cold, wet, or windy it might be!

Date:

Astronomy

Oct. 29, 2012 Rise Set
Actual Time 8:09 AM CDT 6:14 PM CDT
Civil Twilight 7:37 AM CDT 6:46 PM CDT
Nautical Twilight 7:00 AM CDT 7:22 PM CDT
Astronomical Twilight 6:24 AM CDT 7:58 PM CDT
Moon 6:03 PM CDT (10/29) 8:03 AM CDT (10/29)
Length of Visible Light 11h 09m
Length of Day
10h 04m
Full, 100% of the Moon is Illuminated
Oct 29
Full
Oct 29
Full
Nov 6
Last Quarter
Nov 13
New
Nov 20
First Quarter

Hourly Weather History & Observations

Time (CDT) Temp. Windchill Dew Point Humidity Pressure Visibility Wind Dir Wind Speed Gust Speed Precip Events Conditions
12:53 AM 32.0 °F 24.8 °F 28.9 °F 88% 30.24 in 5.0 mi East 8.1 mph - 0.00 in Snow Light Snow
1:53 AM 32.0 °F 23.6 °F 28.9 °F 88% 30.22 in 10.0 mi East 10.4 mph - 0.00 in   Overcast
2:53 AM 33.1 °F 23.9 °F 30.0 °F 89% 30.21 in 10.0 mi East 12.7 mph - 0.00 in Rain Light Rain
3:53 AM 33.1 °F 24.9 °F 30.0 °F 89% 30.19 in 10.0 mi East 10.4 mph - 0.00 in   Overcast
4:53 AM 33.1 °F 25.5 °F 30.0 °F 89% 30.18 in 10.0 mi East 9.2 mph - N/A   Overcast
5:53 AM 34.0 °F 26.0 °F 30.9 °F 89% 30.18 in 10.0 mi East 10.4 mph - N/A   Overcast
6:53 AM 35.1 °F 27.4 °F 30.9 °F 85% 30.18 in 10.0 mi East 10.4 mph - N/A   Overcast
7:53 AM 35.1 °F 27.4 °F 30.9 °F 85% 30.17 in 10.0 mi East 10.4 mph - N/A   Overcast
8:53 AM 36.0 °F 29.0 °F 30.9 °F 82% 30.19 in 10.0 mi East 9.2 mph - N/A   Overcast
9:53 AM 37.9 °F 31.5 °F 32.0 °F 79% 30.19 in 10.0 mi ESE 9.2 mph - N/A   Overcast
10:53 AM 41.0 °F 33.5 °F 32.0 °F 70% 30.18 in 10.0 mi ESE 13.8 mph - N/A   Overcast
11:53 AM 43.0 °F 35.7 °F 33.1 °F 68% 30.18 in 10.0 mi SE 15.0 mph - N/A   Overcast
12:53 PM 46.0 °F 39.9 °F 33.1 °F 61% 30.17 in 10.0 mi SSE 13.8 mph - N/A   Mostly Cloudy
1:53 PM 46.9 °F - 33.1 °F 59% 30.16 in 10.0 mi SE 13.8 mph - N/A   Scattered Clouds
2:53 PM 48.9 °F - 33.1 °F 54% 30.14 in 10.0 mi SSE 13.8 mph - N/A   Scattered Clouds
3:53 PM 48.9 °F - 34.0 °F 56% 30.14 in 10.0 mi SSE 15.0 mph - N/A   Scattered Clouds
4:53 PM 48.2 °F - 33.8 °F 58% 30.12 in 10.0 mi SE 12.7 mph - N/A   Scattered Clouds
5:53 PM 46.0 °F 40.6 °F 33.1 °F 61% 30.15 in 10.0 mi SE 11.5 mph - N/A   Scattered Clouds
6:53 PM 42.1 °F 37.1 °F 30.9 °F 65% 30.16 in 10.0 mi ESE 8.1 mph - N/A   Partly Cloudy
7:53 PM 39.0 °F 34.0 °F 30.9 °F 73% 30.17 in 10.0 mi ESE 6.9 mph - N/A   Partly Cloudy
8:53 PM 39.0 °F 33.4 °F 28.9 °F 67% 30.16 in 10.0 mi ESE 8.1 mph - N/A   Partly Cloudy
9:53 PM 39.0 °F 31.8 °F 28.0 °F 65% 30.16 in 10.0 mi SE 11.5 mph - N/A   Partly Cloudy
10:53 PM 37.0 °F 29.3 °F 27.0 °F 67% 30.17 in 10.0 mi SE 11.5 mph - N/A   Mostly Cloudy
11:53 PM 37.0 °F 30.4 °F 27.0 °F 67% 30.17 in 10.0 mi SE 9.2 mph - N/A   Overcast